Location: Buckeye Ditch
(40.9104°N, 122.9517°W)
Time: 12:11:55
(UTC+00:00)

Explorer 7 - Pass Details

Date: 27 May 2025
Orbit: 445 x 571 km, 50.3° (Epoch: 22 June)

Event Time Altitude Azimuth Distance (km) Brightness Sun altitude
Rises 14:31:59 0° 295° (WNW) 2,604 9.8 18.0°
Reaches altitude 10° 14:34:20 10° 283° (WNW) 1,741 8.9 18.5°
Maximum altitude 14:37:44 28° 224° (SW) 1,016 7.9 19.1°
Drops below altitude 10° 14:41:15 10° 165° (SSE) 1,797 9.6 19.7°
Sets 14:43:44 0° 153° (SSE) 2,707 10.6 20.2°
